TimeCDT,TemperatureF,Dew PointF,Humidity,Sea Level PressureIn,VisibilityMPH,Wind Direction,Wind SpeedMPH,Gust SpeedMPH,PrecipitationIn,Events,Conditions,WindDirDegrees,DateUTC
12:53 AM,32.0,21.0,64,30.20,10.0,SW,6.9,-,N/A,,Clear,230,2012-10-28 05:53:00
1:53 AM,28.9,19.9,69,30.21,10.0,WSW,4.6,-,N/A,,Clear,240,2012-10-28 06:53:00
2:53 AM,30.0,21.9,72,30.20,10.0,West,4.6,-,N/A,,Clear,260,2012-10-28 07:53:00
3:53 AM,30.0,21.0,69,30.19,10.0,Calm,Calm,-,N/A,,Clear,0,2012-10-28 08:53:00
4:53 AM,30.0,21.0,69,30.18,10.0,WSW,3.5,-,N/A,,Clear,240,2012-10-28 09:53:00
5:53 AM,28.9,19.9,69,30.18,10.0,Calm,Calm,-,N/A,,Clear,0,2012-10-28 10:53:00
6:53 AM,26.1,19.0,75,30.20,10.0,SW,4.6,-,N/A,,Clear,230,2012-10-28 11:53:00
7:53 AM,28.0,21.0,75,30.21,10.0,WSW,3.5,-,N/A,,Clear,250,2012-10-28 12:53:00
8:53 AM,33.1,23.0,66,30.21,10.0,SW,3.5,-,N/A,,Clear,230,2012-10-28 13:53:00
9:53 AM,46.0,24.1,42,30.20,10.0,WSW,10.4,-,N/A,,Clear,250,2012-10-28 14:53:00
10:53 AM,51.1,21.9,32,30.19,10.0,WSW,11.5,-,N/A,,Clear,250,2012-10-28 15:53:00
11:53 AM,59.0,21.9,24,30.15,10.0,SW,16.1,-,N/A,,Clear,230,2012-10-28 16:53:00
12:53 PM,61.0,21.0,21,30.14,10.0,South,15.0,25.3,N/A,,Clear,190,2012-10-28 17:53:00
1:53 PM,64.0,19.9,18,30.10,10.0,SSW,19.6,27.6,N/A,,Clear,200,2012-10-28 18:53:00
2:53 PM,64.9,19.0,17,30.06,10.0,South,20.7,26.5,N/A,,Clear,190,2012-10-28 19:53:00
3:53 PM,64.0,19.9,18,30.05,10.0,SSW,17.3,24.2,N/A,,Clear,200,2012-10-28 20:53:00
4:53 PM,63.0,19.0,18,30.04,10.0,South,12.7,-,N/A,,Clear,190,2012-10-28 21:53:00
5:53 PM,62.1,19.9,20,30.04,10.0,South,16.1,-,N/A,,Clear,180,2012-10-28 22:53:00
6:53 PM,57.9,19.9,23,30.06,10.0,South,8.1,-,N/A,,Clear,170,2012-10-28 23:53:00
7:53 PM,52.0,21.0,30,30.08,10.0,SSE,8.1,-,N/A,,Clear,160,2012-10-29 00:53:00
8:53 PM,50.0,21.9,33,30.08,10.0,SSE,9.2,-,N/A,,Clear,160,2012-10-29 01:53:00
9:53 PM,48.9,24.1,38,30.07,10.0,South,10.4,-,N/A,,Clear,170,2012-10-29 02:53:00
10:53 PM,46.9,25.0,42,30.09,10.0,South,10.4,-,N/A,,Clear,180,2012-10-29 03:53:00
11:53 PM,45.0,25.0,46,30.08,10.0,South,10.4,-,N/A,,Clear,180,2012-10-29 04:53:00